Location: ??
(34.9170°N, 135.5016°E)
Time: 02:17:02
(UTC+00:00)

CZ-4B R/B - Pass Details

Date: 29 October 2020
Orbit: 489 x 649 km, 97.9° (Epoch: 25 November)

Event Time Altitude Azimuth Distance (km) Brightness Sun altitude
Rises 20:26:01 0° 5° (N) 2,784 6.4 -11.0°
Reaches altitude 10° 20:28:10 10° 360° (N) 1,908 5.5 -10.6°
Maximum altitude 20:32:10 49° 285° (WNW) 780 3.2 -9.8°
Drops below altitude 10° 20:36:20 10° 211° (SSW) 1,982 5.5 -8.9°
Sets 20:38:37 0° 206° (SSW) 2,904 6.4 -8.5°
